Hourly Data Report for October 13, 2014

All times are specified in Local Standard Time (LST). Add 1 hour to adjust for Daylight Saving Time where and when it is observed.

GJOA HAVEN A
NUNAVUT

68°38'08.000" N
95°51'01.000" W
46.90 m
2302337
71597
YHK

Download Data

Hourly Data (October 2014)
Hourly Data Report for October 13, 2014
Temp Definition
°C
Dew Point Temp Definition
°C
Rel Hum Definition
%
Wind Dir Definition
10's deg

Wind Spd Definition
km/h
Visibility Definition
km
Stn Press Definition
kPa
Hmdx Definition


Wind Chill Definition


Weather Definition


TIME
00:00 Legend Double Dagger -5.1 -6.4 91 33 18 16.1 99.93   -11 LegendNANA
01:00 Legend Double Dagger -5.3 -6.5 91 32 24 16.1 99.92   -13 LegendNANA
02:00 Legend Double Dagger -5.3 -6.1 94 31 21 16.1 99.89   -12 LegendNANA
03:00 Legend Double Dagger -5.5 -6.7 91 31 26 16.1 99.88   -13 LegendNANA
04:00 Legend Double Dagger -5.6 -6.3 95 29 24 11.3 99.84   -13 Snow
05:00 Legend Double Dagger -5.2 -5.7 96 29 22 4.8 99.82   -12 Fog
06:00 Legend Double Dagger -4.8 -5.1 98 30 24 9.7 99.77   -12 Fog
07:00 Legend Double Dagger -4.9 -5.3 97 33 21 16.1 99.74   -12 LegendNANA
08:00 Legend Double Dagger -4.9 -5.6 95 34 24 16.1 99.72   -12 LegendNANA
09:00 Legend Double Dagger -4.1 -5.1 93 33 22 16.1 99.72   -11 LegendNANA
10:00 Legend Double Dagger -3.7 -4.8 92 33 28 16.1 99.69   -11 LegendNANA
11:00 Legend Double Dagger -3.9 -5.0 92 33 28 16.1 99.68   -11 LegendNANA
12:00 Legend Double Dagger -2.5 -3.5 93 35 32 16.1 99.69   -10 LegendNANA
13:00 Legend Double Dagger -3.4 -4.1 95 1 21 16.1 99.74   -10 LegendNANA
14:00 Legend Double Dagger -3.2 -4.2 93 1 32 16.1 99.78   -11 LegendNANA
15:00 Legend Double Dagger -3.8 -4.4 96 2 34 16.1 99.80   -12 Snow
16:00 Legend Double Dagger -3.7 -4.1 97 3 39 16.1 99.82   -12 LegendNANA
17:00 Legend Double Dagger -4.0 -4.3 98 4 35 11.3 99.89   -12 Snow
18:00 Legend Double Dagger -4.7 -4.7 100 4 32 6.4 99.93   -13 Snow
19:00 Legend Double Dagger -4.5 -4.8 98 3 22 16.1 99.98   -11 LegendNANA
20:00 Legend Double Dagger -4.1 -4.2 99 1 15 16.1 100.01   -9 LegendNANA
21:00 Legend Double Dagger -3.5 -3.6 99 35 13 16.1 100.03   -8 LegendNANA
22:00 Legend Double Dagger -3.1 -3.7 96 2 18 16.1 100.05   -9 LegendNANA
23:00 Legend Double Dagger -3.3 -3.6 98 2 15 16.1 100.09   -8 LegendNANA

Notes on Data Quality.

Legend

  • E = Estimated
  • M = Missing
  • NA = Not Available
  • ‡ = Partner data that is not subject to review by the National Climate Archives
Date modified: